Weather in White Rock

Canada     49°01′55″N   122°48′03″W
temp.,
°C
wind,
m/s
gust,
m/s
humid.,
%
clouds,
%
prec.,
mm/h
press.,
hPa
HPBL,
m
14 april, wed
wed1423:00+6ne22735 0.0 102518
02:00+5ne11743 0.0 102525
05:00+4ene11735 0.0 102523
08:00+7ne11630 0.0 102479
11:00+13w22460 0.0 1023446
14:00+14w33460 0.0 1021542
17:00+14wnw35475 0.0 1019318
20:00+9w11705 0.0 101814
15 april, thu
thu1523:00+7e22740 0.0 101911
02:00+7e11815 0.0 101915
05:00+6ene22804 0.0 102021
08:00+9ne12685 0.0 102079
11:00+15w11500 0.0 1020410
14:00+16w32500 0.0 1019517
17:00+16w23510 0.0 1019254
20:00+10wnw22670 0.0 101914
16 april, fri
fri1623:00+9ne11680 0.0 102010
02:00+8e11820 0.0 102110
05:00+8ene11890 0.0 102210
08:00+10ne12710 0.0 102276
11:00+17wnw22500 0.0 1022412
14:00+18w32503 0.0 1022469
17:00+17w22500 0.0 1020240
20:00+12wnw11650 0.0 102011
17 april, sat
sat1723:00+11ne11660 0.0 102010
02:00+10ene11800 0.0 102110
05:00+10ene11890 0.0 102110
08:00+12ne12730 0.0 102170
11:00+18w11520 0.0 1021401
14:00+19wsw32535 0.0 1020466
17:00+18wsw22531 0.0 1019219
20:00+12wsw11700 0.0 101810
18 april, sun
sun1823:00+11e11670 0.0 101910
02:00+10ene11800 0.0 101910
05:00+10e1192100 0.0 101910
08:00+12ene128499 0.0 101966
11:00+18sw215921 0.0 1019449
14:00+18sw225532 0.0 1018462
17:00+18ssw23495 0.0 1016307
20:00+13se22700 0.0 101517